Time,TemperatureF,DewpointF,PressureIn,WindDirection,WindDirectionDegrees,WindSpeedMPH,WindSpeedGustMPH,Humidity,HourlyPrecipIn,Conditions,Clouds,dailyrainin,SoftwareType,DateUTC
2013-01-03 00:03:00,29.9,22.2,30.32,WSW,248,2.9,4.7,73,0.00,,,0.00,WUHU216HW,2013-01-03 06:03:00,
2013-01-03 00:08:00,29.9,22.2,30.33,West,270,3.4,5.1,73,0.00,,,0.00,WUHU216HW,2013-01-03 06:08:00,
2013-01-03 00:13:00,29.9,22.2,30.33,West,270,4.0,5.1,73,0.00,,,0.00,WUHU216HW,2013-01-03 06:13:00,
2013-01-03 00:18:00,29.9,22.2,30.33,WSW,248,2.0,5.6,73,0.00,,,0.00,WUHU216HW,2013-01-03 06:18:00,
2013-01-03 00:23:00,29.9,22.2,30.33,West,270,2.7,6.0,73,0.00,,,0.00,WUHU216HW,2013-01-03 06:23:00,
2013-01-03 00:28:00,29.9,22.2,30.33,NW,315,1.6,6.0,73,0.00,,,0.00,WUHU216HW,2013-01-03 06:28:00,
2013-01-03 00:33:00,29.9,22.2,30.32,WNW,293,2.0,4.5,73,0.00,,,0.00,WUHU216HW,2013-01-03 06:33:00,
2013-01-03 00:38:00,29.9,22.2,30.32,WNW,293,2.5,2.5,73,0.00,,,0.00,WUHU216HW,2013-01-03 06:38:00,
2013-01-03 00:43:00,29.9,22.6,30.32,WSW,248,2.5,3.4,74,0.00,,,0.00,WUHU216HW,2013-01-03 06:43:00,
2013-01-03 00:48:00,29.9,22.6,30.32,WSW,248,2.7,4.3,74,0.00,,,0.00,WUHU216HW,2013-01-03 06:48:00,
2013-01-03 00:53:00,30.1,22.8,30.32,West,270,1.8,4.3,74,0.00,,,0.00,WUHU216HW,2013-01-03 06:53:00,
2013-01-03 00:58:00,30.1,22.8,30.31,West,270,3.1,4.0,74,0.00,,,0.00,WUHU216HW,2013-01-03 06:58:00,
2013-01-03 01:03:00,30.1,22.8,30.31,WSW,248,1.1,4.0,74,0.00,,,0.00,WUHU216HW,2013-01-03 07:03:00,
2013-01-03 01:08:00,30.1,22.8,30.32,WSW,248,3.1,3.4,74,0.00,,,0.00,WUHU216HW,2013-01-03 07:08:00,
2013-01-03 01:13:00,30.1,22.8,30.32,West,270,0.4,4.5,74,0.00,,,0.00,WUHU216HW,2013-01-03 07:13:00,
2013-01-03 01:18:00,30.1,22.8,30.32,West,270,0.7,4.9,74,0.00,,,0.00,WUHU216HW,2013-01-03 07:18:00,
2013-01-03 01:23:00,30.1,22.8,30.32,West,270,0.9,4.9,74,0.00,,,0.00,WUHU216HW,2013-01-03 07:23:00,
2013-01-03 01:28:00,30.1,22.8,30.32,WSW,248,1.3,3.1,74,0.00,,,0.00,WUHU216HW,2013-01-03 07:28:00,
2013-01-03 01:33:00,30.2,22.9,30.33,WNW,293,0.4,3.1,74,0.00,,,0.00,WUHU216HW,2013-01-03 07:33:00,
2013-01-03 01:38:00,30.1,22.8,30.33,NW,315,1.6,3.1,74,0.00,,,0.00,WUHU216HW,2013-01-03 07:38:00,
2013-01-03 01:43:00,30.2,22.9,30.33,WNW,293,1.1,3.4,74,0.00,,,0.00,WUHU216HW,2013-01-03 07:43:00,
2013-01-03 01:48:00,30.2,22.9,30.33,NW,315,2.7,3.4,74,0.00,,,0.00,WUHU216HW,2013-01-03 07:48:00,
2013-01-03 01:53:00,30.2,22.9,30.33,West,270,2.0,3.8,74,0.00,,,0.00,WUHU216HW,2013-01-03 07:53:00,
2013-01-03 01:58:00,30.1,22.8,30.33,SW,225,1.1,4.0,74,0.00,,,0.00,WUHU216HW,2013-01-03 07:58:00,
2013-01-03 02:03:00,29.9,22.6,30.33,West,270,2.5,4.0,74,0.00,,,0.00,WUHU216HW,2013-01-03 08:03:00,
2013-01-03 02:08:00,29.7,22.4,30.33,WSW,248,2.0,2.9,74,0.00,,,0.00,WUHU216HW,2013-01-03 08:08:00,
2013-01-03 02:13:00,29.5,22.2,30.33,West,270,3.4,3.4,74,0.00,,,0.00,WUHU216HW,2013-01-03 08:13:00,
2013-01-03 02:18:00,29.3,22.1,30.33,WSW,248,1.1,3.6,74,0.00,,,0.00,WUHU216HW,2013-01-03 08:18:00,
2013-01-03 02:23:00,29.2,21.9,30.34,WSW,248,2.0,3.8,74,0.00,,,0.00,WUHU216HW,2013-01-03 08:23:00,
2013-01-03 02:28:00,29.0,22.1,30.34,West,270,2.5,3.8,75,0.00,,,0.00,WUHU216HW,2013-01-03 08:28:00,
2013-01-03 02:33:00,28.8,21.9,30.35,WSW,248,1.3,2.7,75,0.00,,,0.00,WUHU216HW,2013-01-03 08:33:00,
2013-01-03 02:38:00,28.6,21.7,30.35,West,270,3.4,3.6,75,0.00,,,0.00,WUHU216HW,2013-01-03 08:38:00,
2013-01-03 02:43:00,28.4,21.5,30.35,West,270,2.5,3.6,75,0.00,,,0.00,WUHU216HW,2013-01-03 08:43:00,
2013-01-03 02:48:00,28.4,21.5,30.35,West,270,2.2,3.6,75,0.00,,,0.00,WUHU216HW,2013-01-03 08:48:00,
2013-01-03 02:53:00,28.3,21.3,30.35,West,270,1.8,3.6,75,0.00,,,0.00,WUHU216HW,2013-01-03 08:53:00,
2013-01-03 02:58:00,28.1,21.4,30.35,WSW,248,2.9,3.4,76,0.00,,,0.00,WUHU216HW,2013-01-03 08:58:00,
2013-01-03 03:03:00,28.1,21.4,30.35,WSW,248,1.1,3.1,76,0.00,,,0.00,WUHU216HW,2013-01-03 09:03:00,
2013-01-03 03:08:00,27.9,21.2,30.35,WSW,248,1.1,3.1,76,0.00,,,0.00,WUHU216HW,2013-01-03 09:08:00,
2013-01-03 03:13:00,27.7,21.1,30.35,WSW,248,0.7,1.8,76,0.00,,,0.00,WUHU216HW,2013-01-03 09:13:00,
2013-01-03 03:18:00,27.5,20.6,30.35,WSW,248,1.1,2.0,75,0.00,,,0.00,WUHU216HW,2013-01-03 09:18:00,
2013-01-03 03:23:00,27.4,20.4,30.35,WSW,248,1.3,2.7,75,0.00,,,0.00,WUHU216HW,2013-01-03 09:23:00,
2013-01-03 03:28:00,27.2,20.3,30.36,WSW,248,0.9,2.7,75,0.00,,,0.00,WUHU216HW,2013-01-03 09:28:00,
2013-01-03 03:33:00,27.0,20.1,30.36,WSW,248,1.3,2.5,75,0.00,,,0.00,WUHU216HW,2013-01-03 09:33:00,
2013-01-03 03:38:00,27.0,20.1,30.35,WSW,248,1.3,3.1,75,0.00,,,0.00,WUHU216HW,2013-01-03 09:38:00,
2013-01-03 03:43:00,26.8,20.2,30.35,WSW,248,0.9,3.1,76,0.00,,,0.00,WUHU216HW,2013-01-03 09:43:00,
2013-01-03 03:48:00,26.8,20.2,30.35,WSW,248,1.6,3.1,76,0.00,,,0.00,WUHU216HW,2013-01-03 09:48:00,
2013-01-03 03:53:00,26.6,20.0,30.35,NNW,338,1.1,3.1,76,0.00,,,0.00,WUHU216HW,2013-01-03 09:53:00,
2013-01-03 03:58:00,26.3,19.7,30.35,WNW,293,0.9,1.8,76,0.00,,,0.00,WUHU216HW,2013-01-03 09:58:00,
2013-01-03 04:03:00,26.3,19.7,30.35,WSW,248,1.8,2.0,76,0.00,,,0.00,WUHU216HW,2013-01-03 10:03:00,
2013-01-03 04:08:00,26.3,19.7,30.35,West,270,1.1,2.5,76,0.00,,,0.00,WUHU216HW,2013-01-03 10:08:00,
2013-01-03 04:13:00,26.1,19.8,30.34,SW,225,1.3,2.5,77,0.00,,,0.00,WUHU216HW,2013-01-03 10:13:00,
2013-01-03 04:18:00,25.9,19.6,30.34,NNW,338,0.7,2.0,77,0.00,,,0.00,WUHU216HW,2013-01-03 10:18:00,
2013-01-03 04:23:00,25.9,19.6,30.34,WSW,248,1.1,2.2,77,0.00,,,0.00,WUHU216HW,2013-01-03 10:23:00,
2013-01-03 04:28:00,25.7,19.5,30.34,West,270,2.2,2.2,77,0.00,,,0.00,WUHU216HW,2013-01-03 10:28:00,
2013-01-03 04:33:00,25.7,19.5,30.34,WSW,248,1.3,2.7,77,0.00,,,0.00,WUHU216HW,2013-01-03 10:33:00,
2013-01-03 04:38:00,25.6,19.4,30.34,WSW,248,0.2,2.7,77,0.00,,,0.00,WUHU216HW,2013-01-03 10:38:00,
2013-01-03 04:43:00,25.6,19.4,30.33,SSW,203,0.7,2.9,77,0.00,,,0.00,WUHU216HW,2013-01-03 10:43:00,
2013-01-03 04:48:00,25.6,19.6,30.34,West,270,0.7,2.9,78,0.00,,,0.00,WUHU216HW,2013-01-03 10:48:00,
2013-01-03 04:53:00,25.6,19.6,30.34,NNW,338,0.0,2.7,78,0.00,,,0.00,WUHU216HW,2013-01-03 10:53:00,
2013-01-03 04:58:00,25.7,19.8,30.34,WSW,248,1.6,2.7,78,0.00,,,0.00,WUHU216HW,2013-01-03 10:58:00,
2013-01-03 05:03:00,25.9,20.0,30.34,WSW,248,1.8,2.9,78,0.00,,,0.00,WUHU216HW,2013-01-03 11:03:00,
2013-01-03 05:08:00,26.1,20.4,30.34,West,270,1.6,3.1,79,0.00,,,0.00,WUHU216HW,2013-01-03 11:08:00,
2013-01-03 05:13:00,26.3,20.6,30.35,West,270,2.0,3.1,79,0.00,,,0.00,WUHU216HW,2013-01-03 11:13:00,
2013-01-03 05:18:00,26.5,20.8,30.35,WSW,248,0.2,2.5,79,0.00,,,0.00,WUHU216HW,2013-01-03 11:18:00,
2013-01-03 05:23:00,26.6,21.0,30.35,West,270,1.1,2.5,79,0.00,,,0.00,WUHU216HW,2013-01-03 11:23:00,
2013-01-03 05:28:00,26.6,21.0,30.36,WSW,248,0.0,2.5,79,0.00,,,0.00,WUHU216HW,2013-01-03 11:28:00,
2013-01-03 05:33:00,26.8,21.2,30.36,WSW,248,0.0,1.3,79,0.00,,,0.00,WUHU216HW,2013-01-03 11:33:00,
2013-01-03 05:38:00,27.0,21.3,30.36,WSW,248,0.0,2.2,79,0.00,,,0.00,WUHU216HW,2013-01-03 11:38:00,
2013-01-03 05:43:00,27.0,21.3,30.36,SSE,158,1.3,2.2,79,0.00,,,0.00,WUHU216HW,2013-01-03 11:43:00,
2013-01-03 05:48:00,27.0,21.3,30.36,South,180,0.0,1.8,79,0.00,,,0.00,WUHU216HW,2013-01-03 11:48:00,
2013-01-03 05:53:00,27.2,21.5,30.36,South,180,0.2,2.5,79,0.00,,,0.00,WUHU216HW,2013-01-03 11:53:00,
2013-01-03 05:58:00,27.4,21.7,30.37,WSW,248,0.0,2.5,79,0.00,,,0.00,WUHU216HW,2013-01-03 11:58:00,
2013-01-03 06:03:00,27.4,21.7,30.37,WSW,248,0.4,1.3,79,0.00,,,0.00,WUHU216HW,2013-01-03 12:03:00,
2013-01-03 06:08:00,27.4,21.7,30.38,West,270,1.6,2.5,79,0.00,,,0.00,WUHU216HW,2013-01-03 12:08:00,
2013-01-03 06:13:00,27.4,21.7,30.38,WSW,248,2.2,2.7,79,0.00,,,0.00,WUHU216HW,2013-01-03 12:13:00,
2013-01-03 06:18:00,27.5,21.9,30.38,WSW,248,1.8,2.7,79,0.00,,,0.00,WUHU216HW,2013-01-03 12:18:00,
2013-01-03 06:23:00,27.5,21.9,30.38,WSW,248,1.1,2.5,79,0.00,,,0.00,WUHU216HW,2013-01-03 12:23:00,
2013-01-03 06:28:00,27.5,21.9,30.38,WSW,248,1.3,2.5,79,0.00,,,0.00,WUHU216HW,2013-01-03 12:28:00,
2013-01-03 06:33:00,27.5,21.9,30.38,West,270,3.1,3.1,79,0.00,,,0.00,WUHU216HW,2013-01-03 12:33:00,
2013-01-03 06:38:00,27.5,21.9,30.39,WSW,248,0.4,3.1,79,0.00,,,0.00,WUHU216HW,2013-01-03 12:38:00,
2013-01-03 06:43:00,27.5,21.9,30.39,SW,225,0.7,3.1,79,0.00,,,0.00,WUHU216HW,2013-01-03 12:43:00,
2013-01-03 06:48:00,27.4,21.7,30.39,WSW,248,0.7,1.8,79,0.00,,,0.00,WUHU216HW,2013-01-03 12:48:00,
2013-01-03 06:53:00,27.4,21.7,30.39,WSW,248,0.7,2.9,79,0.00,,,0.00,WUHU216HW,2013-01-03 12:53:00,
2013-01-03 06:58:00,27.2,21.5,30.39,SSW,203,0.9,2.9,79,0.00,,,0.00,WUHU216HW,2013-01-03 12:58:00,
2013-01-03 07:03:00,27.0,21.3,30.39,SSW,203,0.9,2.2,79,0.00,,,0.00,WUHU216HW,2013-01-03 13:03:00,
2013-01-03 07:08:00,27.0,21.3,30.40,SSW,203,0.7,1.8,79,0.00,,,0.00,WUHU216HW,2013-01-03 13:08:00,
2013-01-03 07:13:00,26.8,21.2,30.40,WSW,248,2.5,2.5,79,0.00,,,0.00,WUHU216HW,2013-01-03 13:13:00,
2013-01-03 07:18:00,26.6,21.0,30.41,WSW,248,1.8,2.5,79,0.00,,,0.00,WUHU216HW,2013-01-03 13:18:00,
2013-01-03 07:23:00,26.6,21.0,30.40,WSW,248,1.8,4.7,79,0.00,,,0.00,WUHU216HW,2013-01-03 13:23:00,
2013-01-03 07:28:00,26.6,21.0,30.40,SW,225,0.7,4.7,79,0.00,,,0.00,WUHU216HW,2013-01-03 13:28:00,
2013-01-03 07:33:00,26.5,20.8,30.41,WSW,248,1.1,2.0,79,0.00,,,0.00,WUHU216HW,2013-01-03 13:33:00,
2013-01-03 07:38:00,26.3,20.6,30.41,SW,225,1.8,2.5,79,0.00,,,0.00,WUHU216HW,2013-01-03 13:38:00,
2013-01-03 07:43:00,26.3,20.6,30.41,WSW,248,2.2,3.1,79,0.00,,,0.00,WUHU216HW,2013-01-03 13:43:00,
2013-01-03 07:48:00,26.3,20.6,30.41,WSW,248,2.2,3.6,79,0.00,,,0.00,WUHU216HW,2013-01-03 13:48:00,
2013-01-03 07:53:00,26.3,20.6,30.42,WSW,248,4.7,5.4,79,0.00,,,0.00,WUHU216HW,2013-01-03 13:53:00,
2013-01-03 07:58:00,26.3,20.6,30.42,West,270,5.4,5.4,79,0.00,,,0.00,WUHU216HW,2013-01-03 13:58:00,
2013-01-03 08:03:00,26.3,20.9,30.42,WSW,248,2.7,5.4,80,0.00,,,0.00,WUHU216HW,2013-01-03 14:03:00,
2013-01-03 08:08:00,26.3,20.9,30.42,WSW,248,2.5,5.4,80,0.00,,,0.00,WUHU216HW,2013-01-03 14:08:00,
2013-01-03 08:13:00,26.3,20.9,30.43,WSW,248,2.0,5.4,80,0.00,,,0.00,WUHU216HW,2013-01-03 14:13:00,
2013-01-03 08:18:00,26.3,20.9,30.43,WSW,248,2.9,4.3,80,0.00,,,0.00,WUHU216HW,2013-01-03 14:18:00,
2013-01-03 08:23:00,26.5,21.1,30.43,WSW,248,2.7,3.6,80,0.00,,,0.00,WUHU216HW,2013-01-03 14:23:00,
2013-01-03 08:28:00,26.5,21.1,30.43,SW,225,1.8,5.4,80,0.00,,,0.00,WUHU216HW,2013-01-03 14:28:00,
2013-01-03 08:33:00,26.6,21.2,30.43,WSW,248,2.5,5.4,80,0.00,,,0.00,WUHU216HW,2013-01-03 14:33:00,
2013-01-03 08:38:00,26.6,21.2,30.44,WSW,248,2.5,5.4,80,0.00,,,0.00,WUHU216HW,2013-01-03 14:38:00,
2013-01-03 08:43:00,26.8,21.4,30.44,West,270,3.1,5.4,80,0.00,,,0.00,WUHU216HW,2013-01-03 14:43:00,
2013-01-03 08:48:00,27.0,21.6,30.44,West,270,2.5,5.4,80,0.00,,,0.00,WUHU216HW,2013-01-03 14:48:00,
2013-01-03 08:53:00,27.0,21.6,30.45,WSW,248,3.1,5.4,80,0.00,,,0.00,WUHU216HW,2013-01-03 14:53:00,
2013-01-03 08:58:00,27.4,22.0,30.44,WNW,293,2.9,4.7,80,0.00,,,0.00,WUHU216HW,2013-01-03 14:58:00,
2013-01-03 09:03:00,27.5,22.1,30.45,WSW,248,2.2,5.4,80,0.00,,,0.00,WUHU216HW,2013-01-03 15:03:00,
2013-01-03 09:08:00,27.7,22.3,30.45,West,270,1.6,5.4,80,0.00,,,0.00,WUHU216HW,2013-01-03 15:08:00,
2013-01-03 09:13:00,28.1,22.7,30.45,SW,225,1.1,5.1,80,0.00,,,0.00,WUHU216HW,2013-01-03 15:13:00,
2013-01-03 09:18:00,28.3,22.9,30.46,West,270,3.4,5.1,80,0.00,,,0.00,WUHU216HW,2013-01-03 15:18:00,
2013-01-03 09:23:00,28.4,23.0,30.46,WNW,293,1.1,5.1,80,0.00,,,0.00,WUHU216HW,2013-01-03 15:23:00,
2013-01-03 09:28:00,28.8,23.1,30.46,West,270,5.1,5.6,79,0.00,,,0.00,WUHU216HW,2013-01-03 15:28:00,
2013-01-03 09:33:00,29.2,23.5,30.46,WNW,293,4.5,5.6,79,0.00,,,0.00,WUHU216HW,2013-01-03 15:33:00,
2013-01-03 09:38:00,29.3,23.7,30.47,WSW,248,2.5,5.6,79,0.00,,,0.00,WUHU216HW,2013-01-03 15:38:00,
2013-01-03 09:43:00,29.9,24.1,30.47,West,270,3.1,5.4,79,0.00,,,0.00,WUHU216HW,2013-01-03 15:43:00,
2013-01-03 09:48:00,30.1,24.3,30.47,WSW,248,3.1,6.3,79,0.00,,,0.00,WUHU216HW,2013-01-03 15:48:00,
2013-01-03 09:53:00,30.4,24.7,30.47,WNW,293,4.0,6.3,79,0.00,,,0.00,WUHU216HW,2013-01-03 15:53:00,
2013-01-03 09:58:00,30.6,24.6,30.47,North,0,2.5,4.7,78,0.00,,,0.00,WUHU216HW,2013-01-03 15:58:00,
2013-01-03 10:03:00,31.0,24.9,30.47,NNW,338,1.6,4.9,78,0.00,,,0.00,WUHU216HW,2013-01-03 16:03:00,
2013-01-03 10:08:00,31.5,25.5,30.48,NW,315,1.8,5.8,78,0.00,,,0.00,WUHU216HW,2013-01-03 16:08:00,
2013-01-03 10:13:00,32.0,26.3,30.48,West,270,3.1,5.8,79,0.00,,,0.00,WUHU216HW,2013-01-03 16:13:00,
2013-01-03 10:18:00,32.6,26.5,30.48,NNW,338,2.7,5.4,78,0.00,,,0.00,WUHU216HW,2013-01-03 16:18:00,
2013-01-03 10:23:00,33.1,27.0,30.48,NW,315,3.1,5.4,78,0.00,,,0.00,WUHU216HW,2013-01-03 16:23:00,
2013-01-03 10:28:00,33.3,26.8,30.48,ENE,68,2.5,5.8,77,0.00,,,0.00,WUHU216HW,2013-01-03 16:28:00,
2013-01-03 10:33:00,33.5,27.0,30.48,North,0,1.8,5.8,77,0.00,,,0.00,WUHU216HW,2013-01-03 16:33:00,
2013-01-03 10:38:00,33.7,26.8,30.48,NNE,23,3.1,4.7,76,0.00,,,0.00,WUHU216HW,2013-01-03 16:38:00,
2013-01-03 10:43:00,33.8,27.0,30.49,NNW,338,5.1,5.1,76,0.00,,,0.00,WUHU216HW,2013-01-03 16:43:00,
2013-01-03 10:48:00,33.8,27.0,30.48,NW,315,1.3,5.4,76,0.00,,,0.00,WUHU216HW,2013-01-03 16:48:00,
2013-01-03 10:53:00,34.2,27.0,30.48,North,0,3.6,5.4,75,0.00,,,0.00,WUHU216HW,2013-01-03 16:53:00,
2013-01-03 10:58:00,34.6,27.4,30.48,NW,315,2.5,4.7,75,0.00,,,0.00,WUHU216HW,2013-01-03 16:58:00,
2013-01-03 11:03:00,34.9,27.7,30.48,NW,315,2.2,4.9,75,0.00,,,0.00,WUHU216HW,2013-01-03 17:03:00,
2013-01-03 11:08:00,35.1,27.5,30.48,NW,315,4.5,6.0,74,0.00,,,0.00,WUHU216HW,2013-01-03 17:08:00,
2013-01-03 11:13:00,35.3,27.7,30.48,West,270,4.5,6.0,74,0.00,,,0.00,WUHU216HW,2013-01-03 17:13:00,
2013-01-03 11:18:00,35.5,27.6,30.48,NNW,338,2.5,6.0,73,0.00,,,0.00,WUHU216HW,2013-01-03 17:18:00,
2013-01-03 11:23:00,35.6,27.8,30.48,NW,315,3.1,6.0,73,0.00,,,0.00,WUHU216HW,2013-01-03 17:23:00,
2013-01-03 11:28:00,35.6,27.8,30.48,NW,315,1.1,5.4,73,0.00,,,0.00,WUHU216HW,2013-01-03 17:28:00,
2013-01-03 11:33:00,36.0,28.2,30.47,North,0,1.1,5.4,73,0.00,,,0.00,WUHU216HW,2013-01-03 17:33:00,
2013-01-03 11:38:00,36.2,28.4,30.47,North,0,2.7,5.4,73,0.00,,,0.00,WUHU216HW,2013-01-03 17:38:00,
2013-01-03 11:43:00,36.4,28.5,30.46,North,0,3.6,4.9,73,0.00,,,0.00,WUHU216HW,2013-01-03 17:43:00,
2013-01-03 11:48:00,36.4,28.5,30.46,NW,315,0.7,4.7,73,0.00,,,0.00,WUHU216HW,2013-01-03 17:48:00,
2013-01-03 11:53:00,36.4,28.2,30.46,NNW,338,2.5,4.7,72,0.00,,,0.00,WUHU216HW,2013-01-03 17:53:00,
2013-01-03 11:58:00,36.4,28.2,30.46,SW,225,2.7,4.5,72,0.00,,,0.00,WUHU216HW,2013-01-03 17:58:00,
2013-01-03 12:03:00,36.4,28.2,30.46,West,270,4.0,4.7,72,0.00,,,0.00,WUHU216HW,2013-01-03 18:03:00,
2013-01-03 12:08:00,36.5,28.4,30.46,West,270,5.6,5.6,72,0.00,,,0.00,WUHU216HW,2013-01-03 18:08:00,
2013-01-03 12:13:00,36.7,28.5,30.46,NNE,23,2.5,5.6,72,0.00,,,0.00,WUHU216HW,2013-01-03 18:13:00,
2013-01-03 12:18:00,36.7,28.3,30.46,NNW,338,1.6,5.6,71,0.00,,,0.00,WUHU216HW,2013-01-03 18:18:00,
2013-01-03 12:23:00,36.7,28.3,30.46,WNW,293,4.5,5.4,71,0.00,,,0.00,WUHU216HW,2013-01-03 18:23:00,
2013-01-03 12:28:00,36.9,28.5,30.45,NW,315,3.8,6.3,71,0.00,,,0.00,WUHU216HW,2013-01-03 18:28:00,
2013-01-03 12:33:00,37.3,28.8,30.45,North,0,5.8,6.3,71,0.00,,,0.00,WUHU216HW,2013-01-03 18:33:00,
2013-01-03 12:38:00,37.3,28.4,30.45,WNW,293,3.1,6.0,70,0.00,,,0.00,WUHU216HW,2013-01-03 18:38:00,
2013-01-03 12:43:00,37.4,28.6,30.45,NW,315,1.8,6.0,70,0.00,,,0.00,WUHU216HW,2013-01-03 18:43:00,
2013-01-03 12:48:00,37.3,28.1,30.45,North,0,6.5,6.5,69,0.00,,,0.00,WUHU216HW,2013-01-03 18:48:00,
2013-01-03 12:53:00,37.1,27.6,30.44,NNW,338,1.1,6.5,68,0.00,,,0.00,WUHU216HW,2013-01-03 18:53:00,
2013-01-03 12:58:00,37.1,27.6,30.44,NW,315,3.1,6.5,68,0.00,,,0.00,WUHU216HW,2013-01-03 18:58:00,
2013-01-03 13:03:00,37.1,27.6,30.44,NW,315,1.6,6.7,68,0.00,,,0.00,WUHU216HW,2013-01-03 19:03:00,
2013-01-03 13:08:00,37.4,27.9,30.44,NNW,338,4.0,6.7,68,0.00,,,0.00,WUHU216HW,2013-01-03 19:08:00,
2013-01-03 13:13:00,37.4,27.9,30.44,NW,315,1.6,5.1,68,0.00,,,0.00,WUHU216HW,2013-01-03 19:13:00,
2013-01-03 13:18:00,37.4,27.5,30.44,North,0,4.0,7.4,67,0.00,,,0.00,WUHU216HW,2013-01-03 19:18:00,
2013-01-03 13:55:00,38.0,27.2,30.43,NW,315,1.8,5.6,65,0.00,,,0.00,WUHU216HW,2013-01-03 19:55:00,
2013-01-03 14:00:00,38.2,27.4,30.43,North,0,3.1,5.4,65,0.00,,,0.00,WUHU216HW,2013-01-03 20:00:00,
2013-01-03 14:05:00,38.2,27.4,30.43,North,0,4.0,6.0,65,0.00,,,0.00,WUHU216HW,2013-01-03 20:05:00,
2013-01-03 14:10:00,38.3,27.2,30.43,NNE,23,1.8,6.9,64,0.00,,,0.00,WUHU216HW,2013-01-03 20:10:00,
2013-01-03 14:15:00,38.3,27.2,30.43,NW,315,6.3,6.9,64,0.00,,,0.00,WUHU216HW,2013-01-03 20:15:00,
2013-01-03 14:20:00,38.2,27.0,30.43,West,270,2.2,6.3,64,0.00,,,0.00,WUHU216HW,2013-01-03 20:20:00,
2013-01-03 14:25:00,38.3,27.2,30.43,North,0,1.8,4.9,64,0.00,,,0.00,WUHU216HW,2013-01-03 20:25:00,
2013-01-03 14:30:00,38.5,26.9,30.43,NW,315,4.0,5.4,63,0.00,,,0.00,WUHU216HW,2013-01-03 20:30:00,
2013-01-03 14:35:00,38.2,26.7,30.43,NNW,338,5.1,7.4,63,0.00,,,0.00,WUHU216HW,2013-01-03 20:35:00,
2013-01-03 14:40:00,38.0,26.5,30.44,NNW,338,2.0,7.4,63,0.00,,,0.00,WUHU216HW,2013-01-03 20:40:00,
2013-01-03 14:45:00,37.8,26.3,30.44,NNW,338,3.8,6.5,63,0.00,,,0.00,WUHU216HW,2013-01-03 20:45:00,
2013-01-03 14:50:00,37.4,25.6,30.43,North,0,2.5,5.8,62,0.00,,,0.00,WUHU216HW,2013-01-03 20:50:00,
2013-01-03 14:55:00,37.1,25.3,30.44,NW,315,4.7,4.7,62,0.00,,,0.00,WUHU216HW,2013-01-03 20:55:00,
2013-01-03 15:00:00,36.9,25.1,30.44,NNW,338,5.1,5.1,62,0.00,,,0.00,WUHU216HW,2013-01-03 21:00:00,
2013-01-03 15:05:00,36.5,25.1,30.44,NE,45,4.5,5.1,63,0.00,,,0.00,WUHU216HW,2013-01-03 21:05:00,
2013-01-03 15:10:00,36.5,25.1,30.44,NNE,23,0.7,5.1,63,0.00,,,0.00,WUHU216HW,2013-01-03 21:10:00,
2013-01-03 15:15:00,36.4,24.9,30.44,North,0,2.0,5.1,63,0.00,,,0.00,WUHU216HW,2013-01-03 21:15:00,
2013-01-03 15:20:00,36.5,25.1,30.44,North,0,2.0,4.7,63,0.00,,,0.00,WUHU216HW,2013-01-03 21:20:00,
2013-01-03 15:25:00,36.9,25.5,30.44,NNW,338,2.5,4.7,63,0.00,,,0.00,WUHU216HW,2013-01-03 21:25:00,
2013-01-03 15:30:00,37.1,25.7,30.44,NW,315,4.7,6.7,63,0.00,,,0.00,WUHU216HW,2013-01-03 21:30:00,
2013-01-03 15:35:00,37.3,25.5,30.44,NNW,338,4.5,6.7,62,0.00,,,0.00,WUHU216HW,2013-01-03 21:35:00,
2013-01-03 15:40:00,37.1,25.3,30.45,NW,315,4.0,6.7,62,0.00,,,0.00,WUHU216HW,2013-01-03 21:40:00,
2013-01-03 15:45:00,37.1,25.3,30.44,ENE,68,2.2,5.4,62,0.00,,,0.00,WUHU216HW,2013-01-03 21:45:00,
2013-01-03 15:50:00,37.1,25.3,30.44,NNW,338,4.9,5.1,62,0.00,,,0.00,WUHU216HW,2013-01-03 21:50:00,
2013-01-03 15:55:00,37.3,25.5,30.45,NNE,23,1.8,5.6,62,0.00,,,0.00,WUHU216HW,2013-01-03 21:55:00,
2013-01-03 16:00:00,37.3,25.5,30.45,NNW,338,1.1,5.6,62,0.00,,,0.00,WUHU216HW,2013-01-03 22:00:00,
2013-01-03 16:05:00,37.3,25.5,30.44,NW,315,2.2,3.4,62,0.00,,,0.00,WUHU216HW,2013-01-03 22:05:00,
2013-01-03 16:10:00,37.1,25.3,30.45,NW,315,3.8,7.6,62,0.00,,,0.00,WUHU216HW,2013-01-03 22:10:00,
2013-01-03 16:15:00,37.1,25.3,30.45,West,270,4.0,7.6,62,0.00,,,0.00,WUHU216HW,2013-01-03 22:15:00,
2013-01-03 16:20:00,36.7,24.9,30.45,North,0,2.9,6.7,62,0.00,,,0.00,WUHU216HW,2013-01-03 22:20:00,
2013-01-03 16:25:00,36.4,24.6,30.45,NNW,338,4.0,6.5,62,0.00,,,0.00,WUHU216HW,2013-01-03 22:25:00,
2013-01-03 16:30:00,36.0,24.3,30.45,NNE,23,1.8,5.8,62,0.00,,,0.00,WUHU216HW,2013-01-03 22:30:00,
2013-01-03 16:35:00,36.0,24.3,30.45,NNW,338,1.6,5.4,62,0.00,,,0.00,WUHU216HW,2013-01-03 22:35:00,
2013-01-03 16:40:00,35.8,24.1,30.45,NW,315,3.4,4.0,62,0.00,,,0.00,WUHU216HW,2013-01-03 22:40:00,
2013-01-03 16:45:00,35.6,23.9,30.46,NW,315,2.0,4.0,62,0.00,,,0.00,WUHU216HW,2013-01-03 22:45:00,
2013-01-03 16:50:00,35.5,23.8,30.46,NW,315,2.2,3.8,62,0.00,,,0.00,WUHU216HW,2013-01-03 22:50:00,
2013-01-03 16:55:00,35.3,23.6,30.46,North,0,1.1,3.6,62,0.00,,,0.00,WUHU216HW,2013-01-03 22:55:00,
2013-01-03 17:00:00,34.9,23.2,30.46,North,0,1.8,4.0,62,0.00,,,0.00,WUHU216HW,2013-01-03 23:00:00,
2013-01-03 17:05:00,34.9,23.2,30.46,NNW,338,1.6,4.0,62,0.00,,,0.00,WUHU216HW,2013-01-03 23:05:00,
2013-01-03 17:10:00,34.9,23.2,30.46,NW,315,0.7,3.4,62,0.00,,,0.00,WUHU216HW,2013-01-03 23:10:00,
2013-01-03 17:15:00,34.7,23.4,30.46,NNW,338,1.8,2.7,63,0.00,,,0.00,WUHU216HW,2013-01-03 23:15:00,
2013-01-03 17:20:00,34.7,23.4,30.46,NW,315,1.8,3.1,63,0.00,,,0.00,WUHU216HW,2013-01-03 23:20:00,
2013-01-03 17:25:00,34.6,23.2,30.46,NW,315,1.6,3.8,63,0.00,,,0.00,WUHU216HW,2013-01-03 23:25:00,
2013-01-03 17:30:00,34.4,23.0,30.46,NNE,23,2.5,3.8,63,0.00,,,0.00,WUHU216HW,2013-01-03 23:30:00,
2013-01-03 17:35:00,34.4,23.0,30.47,North,0,2.7,3.6,63,0.00,,,0.00,WUHU216HW,2013-01-03 23:35:00,
2013-01-03 17:40:00,34.4,23.0,30.47,North,0,2.0,4.7,63,0.00,,,0.00,WUHU216HW,2013-01-03 23:40:00,
2013-01-03 17:45:00,34.2,22.9,30.47,NNW,338,1.6,4.7,63,0.00,,,0.00,WUHU216HW,2013-01-03 23:45:00,
2013-01-03 17:50:00,34.2,22.9,30.47,WNW,293,2.7,3.1,63,0.00,,,0.00,WUHU216HW,2013-01-03 23:50:00,
2013-01-03 17:55:00,34.2,22.9,30.47,North,0,2.9,4.0,63,0.00,,,0.00,WUHU216HW,2013-01-03 23:55:00,
2013-01-03 18:00:00,34.2,22.9,30.47,NNW,338,1.8,4.0,63,0.00,,,0.00,WUHU216HW,2013-01-04 00:00:00,
2013-01-03 18:05:00,34.0,22.7,30.47,NNW,338,1.8,3.6,63,0.00,,,0.00,WUHU216HW,2013-01-04 00:05:00,
2013-01-03 18:10:00,34.0,22.7,30.48,NNW,338,2.5,3.6,63,0.00,,,0.00,WUHU216HW,2013-01-04 00:10:00,
2013-01-03 18:15:00,34.0,22.7,30.48,NNW,338,2.5,3.8,63,0.00,,,0.00,WUHU216HW,2013-01-04 00:15:00,
2013-01-03 18:20:00,34.0,22.7,30.48,North,0,2.2,3.8,63,0.00,,,0.00,WUHU216HW,2013-01-04 00:20:00,
2013-01-03 18:25:00,33.8,22.9,30.48,North,0,1.6,2.5,64,0.00,,,0.00,WUHU216HW,2013-01-04 00:25:00,
2013-01-03 18:30:00,33.8,22.9,30.48,NNE,23,4.9,4.9,64,0.00,,,0.00,WUHU216HW,2013-01-04 00:30:00,
2013-01-03 18:35:00,33.7,22.7,30.48,NNW,338,1.8,4.9,64,0.00,,,0.00,WUHU216HW,2013-01-04 00:35:00,
2013-01-03 18:40:00,33.5,22.5,30.48,NNW,338,1.3,4.0,64,0.00,,,0.00,WUHU216HW,2013-01-04 00:40:00,
2013-01-03 18:45:00,33.5,22.9,30.48,North,0,1.8,3.4,65,0.00,,,0.00,WUHU216HW,2013-01-04 00:45:00,
2013-01-03 18:50:00,33.3,22.8,30.48,NW,315,2.0,2.5,65,0.00,,,0.00,WUHU216HW,2013-01-04 00:50:00,
2013-01-03 18:55:00,33.3,22.8,30.48,NW,315,1.3,2.5,65,0.00,,,0.00,WUHU216HW,2013-01-04 00:55:00,
2013-01-03 19:00:00,33.3,22.8,30.48,NNW,338,2.5,2.5,65,0.00,,,0.00,WUHU216HW,2013-01-04 01:00:00,
2013-01-03 19:05:00,33.1,22.6,30.48,NNW,338,0.2,2.5,65,0.00,,,0.00,WUHU216HW,2013-01-04 01:05:00,
2013-01-03 19:10:00,33.1,22.6,30.48,NNW,338,1.1,2.5,65,0.00,,,0.00,WUHU216HW,2013-01-04 01:10:00,
2013-01-03 19:15:00,32.9,22.8,30.48,NNW,338,2.0,2.0,66,0.00,,,0.00,WUHU216HW,2013-01-04 01:15:00,
2013-01-03 19:20:00,32.9,22.8,30.49,NW,315,1.8,2.2,66,0.00,,,0.00,WUHU216HW,2013-01-04 01:20:00,
2013-01-03 19:25:00,32.8,22.6,30.48,NNW,338,1.1,3.6,66,0.00,,,0.00,WUHU216HW,2013-01-04 01:25:00,
2013-01-03 19:30:00,32.8,22.6,30.48,NE,45,1.8,3.6,66,0.00,,,0.00,WUHU216HW,2013-01-04 01:30:00,
2013-01-03 19:35:00,32.8,22.6,30.48,North,0,1.6,2.7,66,0.00,,,0.00,WUHU216HW,2013-01-04 01:35:00,
2013-01-03 19:40:00,32.6,22.4,30.48,North,0,0.0,2.5,66,0.00,,,0.00,WUHU216HW,2013-01-04 01:40:00,
2013-01-03 19:45:00,32.6,22.8,30.48,North,0,0.4,1.6,67,0.00,,,0.00,WUHU216HW,2013-01-04 01:45:00,
2013-01-03 19:50:00,32.6,22.8,30.48,North,0,1.1,1.3,67,0.00,,,0.00,WUHU216HW,2013-01-04 01:50:00,
2013-01-03 19:55:00,32.6,22.8,30.48,NNW,338,0.9,1.3,67,0.00,,,0.00,WUHU216HW,2013-01-04 01:55:00,
2013-01-03 20:00:00,32.4,22.7,30.48,NNW,338,0.4,0.9,67,0.00,,,0.00,WUHU216HW,2013-01-04 02:00:00,
2013-01-03 20:05:00,32.4,22.7,30.48,NNW,338,1.8,2.9,67,0.00,,,0.00,WUHU216HW,2013-01-04 02:05:00,
2013-01-03 20:10:00,32.2,22.5,30.48,NNW,338,0.7,2.9,67,0.00,,,0.00,WUHU216HW,2013-01-04 02:10:00,
2013-01-03 20:15:00,32.0,22.3,30.48,North,0,0.2,3.4,67,0.00,,,0.00,WUHU216HW,2013-01-04 02:15:00,
2013-01-03 20:20:00,32.0,22.3,30.48,NW,315,1.6,3.4,67,0.00,,,0.00,WUHU216HW,2013-01-04 02:20:00,
2013-01-03 20:25:00,32.0,22.3,30.48,NNW,338,0.4,2.5,67,0.00,,,0.00,WUHU216HW,2013-01-04 02:25:00,
2013-01-03 20:30:00,32.0,22.0,30.48,NNW,338,0.7,1.6,66,0.00,,,0.00,WUHU216HW,2013-01-04 02:30:00,
2013-01-03 20:35:00,31.9,21.8,30.48,NNW,338,1.6,2.9,66,0.00,,,0.00,WUHU216HW,2013-01-04 02:35:00,
2013-01-03 20:40:00,31.7,21.6,30.48,NNW,338,0.4,2.9,66,0.00,,,0.00,WUHU216HW,2013-01-04 02:40:00,
2013-01-03 20:45:00,31.7,22.0,30.48,NNW,338,0.7,1.6,67,0.00,,,0.00,WUHU216HW,2013-01-04 02:45:00,
2013-01-03 20:50:00,31.5,21.8,30.48,NNW,338,0.2,0.7,67,0.00,,,0.00,WUHU216HW,2013-01-04 02:50:00,
2013-01-03 20:55:00,31.5,21.8,30.48,NNW,338,0.0,1.1,67,0.00,,,0.00,WUHU216HW,2013-01-04 02:55:00,
2013-01-03 21:00:00,31.5,21.8,30.47,NNW,338,0.2,1.1,67,0.00,,,0.00,WUHU216HW,2013-01-04 03:00:00,
2013-01-03 21:05:00,31.3,21.6,30.48,NNW,338,0.0,0.4,67,0.00,,,0.00,WUHU216HW,2013-01-04 03:05:00,
2013-01-03 21:10:00,31.3,21.6,30.48,NNW,338,0.0,0.0,67,0.00,,,0.00,WUHU216HW,2013-01-04 03:10:00,
2013-01-03 21:15:00,31.3,22.0,30.47,NNW,338,0.0,0.0,68,0.00,,,0.00,WUHU216HW,2013-01-04 03:15:00,
2013-01-03 21:20:00,31.3,22.0,30.47,NNW,338,0.0,0.0,68,0.00,,,0.00,WUHU216HW,2013-01-04 03:20:00,
2013-01-03 21:25:00,31.1,21.8,30.47,NNW,338,0.0,0.2,68,0.00,,,0.00,WUHU216HW,2013-01-04 03:25:00,
2013-01-03 21:30:00,31.0,21.6,30.47,WSW,248,1.3,1.6,68,0.00,,,0.00,WUHU216HW,2013-01-04 03:30:00,
2013-01-03 21:35:00,30.8,21.4,30.47,NNW,338,0.0,4.9,68,0.00,,,0.00,WUHU216HW,2013-01-04 03:35:00,
2013-01-03 21:40:00,30.6,21.2,30.47,NNW,338,0.0,4.9,68,0.00,,,0.00,WUHU216HW,2013-01-04 03:40:00,
2013-01-03 21:45:00,30.6,21.2,30.47,SW,225,0.2,1.1,68,0.00,,,0.00,WUHU216HW,2013-01-04 03:45:00,
2013-01-03 21:50:00,30.4,21.4,30.47,WSW,248,0.0,1.1,69,0.00,,,0.00,WUHU216HW,2013-01-04 03:50:00,
2013-01-03 21:55:00,30.2,21.2,30.48,West,270,0.4,1.3,69,0.00,,,0.00,WUHU216HW,2013-01-04 03:55:00,
2013-01-03 22:00:00,30.1,21.1,30.48,West,270,0.0,1.3,69,0.00,,,0.00,WUHU216HW,2013-01-04 04:00:00,
2013-01-03 22:05:00,29.9,20.9,30.47,West,270,0.0,0.7,69,0.00,,,0.00,WUHU216HW,2013-01-04 04:05:00,
2013-01-03 22:10:00,29.9,20.9,30.48,West,270,0.0,0.0,69,0.00,,,0.00,WUHU216HW,2013-01-04 04:10:00,
2013-01-03 22:15:00,29.7,20.8,30.48,NW,315,0.0,0.0,69,0.00,,,0.00,WUHU216HW,2013-01-04 04:15:00,
2013-01-03 22:20:00,29.5,21.0,30.48,NW,315,0.0,0.0,70,0.00,,,0.00,WUHU216HW,2013-01-04 04:20:00,
2013-01-03 22:25:00,29.3,20.8,30.48,NW,315,0.0,0.0,70,0.00,,,0.00,WUHU216HW,2013-01-04 04:25:00,
2013-01-03 22:30:00,29.2,20.6,30.48,NW,315,0.0,0.0,70,0.00,,,0.00,WUHU216HW,2013-01-04 04:30:00,
2013-01-03 22:35:00,29.2,20.6,30.47,NW,315,0.0,0.0,70,0.00,,,0.00,WUHU216HW,2013-01-04 04:35:00,
2013-01-03 22:40:00,28.8,20.4,30.47,NW,315,0.0,0.0,70,0.00,,,0.00,WUHU216HW,2013-01-04 04:40:00,
2013-01-03 22:45:00,28.6,20.2,30.47,NW,315,0.0,0.0,70,0.00,,,0.00,WUHU216HW,2013-01-04 04:45:00,
2013-01-03 22:50:00,28.4,20.0,30.47,NW,315,0.0,0.0,70,0.00,,,0.00,WUHU216HW,2013-01-04 04:50:00,
2013-01-03 22:55:00,28.4,20.3,30.47,NW,315,0.0,0.0,71,0.00,,,0.00,WUHU216HW,2013-01-04 04:55:00,
2013-01-03 23:00:00,28.3,20.1,30.47,NW,315,0.4,0.7,71,0.00,,,0.00,WUHU216HW,2013-01-04 05:00:00,
2013-01-03 23:01:00,28.3,20.1,30.47,NW,315,0.4,0.7,71,0.00,,,0.00,WUHU216HW,2013-01-04 05:01:00,
2013-01-03 23:03:00,28.3,20.1,30.47,NW,315,0.7,1.1,71,0.00,,,0.00,WUHU216HW,2013-01-04 05:03:00,
2013-01-03 23:08:00,28.1,19.9,30.47,NNW,338,1.1,1.1,71,0.00,,,0.00,WUHU216HW,2013-01-04 05:08:00,
2013-01-03 23:13:00,27.9,19.7,30.47,NNW,338,0.0,1.1,71,0.00,,,0.00,WUHU216HW,2013-01-04 05:13:00,
2013-01-03 23:18:00,27.9,20.1,30.47,NNW,338,0.7,1.1,72,0.00,,,0.00,WUHU216HW,2013-01-04 05:18:00,
2013-01-03 23:23:00,27.7,19.9,30.47,NNW,338,0.0,1.1,72,0.00,,,0.00,WUHU216HW,2013-01-04 05:23:00,
2013-01-03 23:28:00,27.7,19.9,30.47,NNW,338,0.7,1.1,72,0.00,,,0.00,WUHU216HW,2013-01-04 05:28:00,
2013-01-03 23:33:00,27.7,19.9,30.47,NNW,338,0.0,1.1,72,0.00,,,0.00,WUHU216HW,2013-01-04 05:33:00,
2013-01-03 23:38:00,27.5,20.0,30.46,NNW,338,0.0,0.7,73,0.00,,,0.00,WUHU216HW,2013-01-04 05:38:00,
2013-01-03 23:43:00,27.5,20.0,30.46,NNW,338,0.0,0.0,73,0.00,,,0.00,WUHU216HW,2013-01-04 05:43:00,
2013-01-03 23:48:00,27.4,19.5,30.46,NNW,338,0.0,0.0,72,0.00,,,0.00,WUHU216HW,2013-01-04 05:48:00,
2013-01-03 23:53:00,27.2,19.4,30.46,NNW,338,0.0,0.0,72,0.00,,,0.00,WUHU216HW,2013-01-04 05:53:00,
2013-01-03 23:58:00,27.0,19.2,30.46,NNW,338,0.0,0.0,72,0.00,,,0.00,WUHU216HW,2013-01-04 05:58:00,